Tracking 28520 objects as of 29-Feb-2024
HD Live streaming from Space Station
objects crossing your sky now

NOAA 17 DEB

Track NOAA 17 DEB now!
10-day predictions


NORAD ID: 48702
Int'l Code: 2002-032AL
Perigee: 769.9 km
Apogee: 784.6 km
Inclination: 98.6 °
Period: 100.2 minutes
Semi major axis: 7148 km
RCS: Unknown
Launch date: June 24, 2002
Source: United States (US)
Launch site: AIR FORCE WESTERN TEST RANGE (AFWTR)

Note: This is SATELLITE DEBRIS
Your satellite tracking list
Your tracking list is empty




NASA's NSSDC Master Catalog

Two Line Element Set (TLE):
1 48702U 02032AK  24059.80074868  .00008283  00000-0  28334-2 0  9992
2 48702  98.6499   8.9540 0010240 219.5797 140.4642 14.36489530154612
Source of the keplerian elements: AFSPC